Location: Alulod
(14.2076°N, 120.8898°E)
Time: 02:39:15
(UTC+00:00)

USA 238 DEB - Pass Details

Date: 15 March 2026
Orbit: 883 x 1328 km, 63.4° (Epoch: 10 January)

Event Time Altitude Azimuth Distance (km) Brightness Sun altitude
Rises 19:49:56 0° 3° (N) 4,156 6.9 -33.2°
Reaches altitude 10° 19:54:11 10° 25° (NNE) 3,260 6.5 -32.2°
Maximum altitude 19:58:34 16° 59° (ENE) 2,903 6.6 -31.1°
Drops below altitude 10° 20:03:03 10° 92° (E) 3,346 7.2 -30.0°
Sets 20:07:26 0° 113° (ESE) 4,325 7.8 -29.0°
